Flag Weather past 2 weeks in Abu Dhabi, Abu Dhabi, United Arab Emirates

Now
72 °F

Clear.


Feels Like: 72 °F
Forecast: 73 / 78 °F
Wind: 2 mph from North

Location: Abu Dhabi Bateen Airport

Current Time: Nov 28, 2014 at 4:37:46 AM

Latest Report: Nov 28, 2014 at 4:00 AM


Visibility: 10 mi

Pressure: 29.95 "Hg

Humidity: 78%

Dew point: 64 °F

Location of Abu DhabiLocation

Historic Weather in Abu Dhabi — Graph

°F

Abu Dhabi temperature yesterday

Maximum temperature yesterday: 82 °F (at 11:00 AM)
Minimum temperature yesterday: 72 °F (at 7:00 AM)
Average temperature yesterday: 78 °F

Past Weeks' High & Low Weather Summary

 TemperatureHumidityPressure
High90 °F (Nov 25, 4:00 PM)100% (Nov 23, 7:00 AM)30.12 "Hg (Nov 23, 7:00 AM)
Low66 °F (Nov 13, 5:00 AM)19% (Nov 14, 12:00 PM)29.86 "Hg (Nov 24, 4:00 PM)
Average77 °F61%30.00 "Hg
* Reported Nov 13 3:00 AM — Nov 28 3:00 AM, Abu Dhabi, Weather by CustomWeather, © 2014

Note: Actual official high and low records may vary slightly from our data, if they occured in-between our weather recording intervals... More about our weather records

Advertising

Abu Dhabi weather history for previous 24 hours

 ConditionsComfort  
Time TempWeatherWind HumidityBarometerVisibility
3:00 AM
Nov 28
73 °FClear.No wind74%29.95 "Hg10 mi
2:00 AM75 °FClear.1 mph69%29.95 "Hg10 mi
1:00 AM73 °FClear.2 mph69%29.95 "Hg10 mi
12:00 AM75 °FClear.3 mph65%29.98 "Hg10 mi
11:00 PM
Nov 27
75 °FClear.1 mph61%29.98 "Hg10 mi
10:00 PM75 °FClear.2 mph61%29.98 "Hg10 mi
9:00 PM77 °FClear.3 mph57%29.98 "Hg10 mi
8:00 PM77 °FClear.5 mph57%29.98 "Hg10 mi
7:00 PM77 °FPassing clouds.6 mph61%29.98 "HgN/A
6:00 PM79 °FClear.8 mph54%29.95 "Hg10 mi
5:00 PM81 °FSunny.12 mph48%29.95 "Hg10 mi
4:00 PM81 °FPassing clouds.13 mph45%29.95 "HgN/A
3:00 PM82 °FSunny.15 mph40%29.95 "Hg10 mi
2:00 PM82 °FSunny.14 mph40%29.95 "Hg10 mi
1:00 PM82 °FPassing clouds.13 mph40%29.98 "HgN/A
12:00 PM82 °FSunny.14 mph45%30.01 "Hg10 mi
11:00 AM82 °FSunny.14 mph42%30.01 "Hg10 mi
10:00 AM81 °FSunny.10 mph48%30.04 "Hg10 mi
9:00 AM79 °FSunny.8 mph54%30.04 "Hg10 mi
8:00 AM73 °FPassing clouds.3 mph78%30.01 "HgN/A
7:00 AM72 °FPassing clouds.5 mph78%29.98 "HgN/A
6:00 AM75 °FPassing clouds.3 mph65%29.95 "HgN/A
5:00 AM73 °FClear.2 mph69%29.95 "Hg10 mi
4:00 AM75 °FClear.3 mph65%29.95 "Hg10 mi
Weather by CustomWeather, © 2014

See weather overviewHow to use our weather pages